This demonstration page uses our WeatherBlox Daily Observations layout. Learn more.

Left ArrowRight Arrow

Hourly Observations for February 12, 2017

Temp ( °F °C ) Dew Point ( °F °C ) Humidity (%) Winds ( mph kmh ) Pressure ( in mb ) Visibility ( mi km ) Precip ( " mm )
12:01 am 00:01 Cloudy with Light Rain 60 15.6 59 15 96 96 VRB 3 6 29.83 1010 7 11 N/A
12:53 am 00:53 Cloudy with Light Rain 60 15.6 59 15 96 96 N N/A 29.82 1010 7 11 N/A
1:53 am 01:53 Cloudy with Light Rain 61 16.1 59 15 93 93 SSW 3 6 29.79 1009 10 16 0.01 0.25
2:53 am 02:53 Cloudy 62 16.7 59 15 90 90 SSW 3 6 29.76 1008 10 16 N/A
3:24 am 03:24 Cloudy 62 16.7 59 15 90 90 SW 7 11 29.77 1008 10 16 N/A
3:53 am 03:53 Cloudy 62 16.7 60 15.6 93 93 SW 7 11 29.75 1007 9 14 N/A
4:39 am 04:39 Cloudy 62 16.7 60 15.6 93 93 WSW 8 13 29.74 1007 9 14 N/A
4:53 am 04:53 Cloudy 62 16.7 60 15.6 93 93 WSW 9 15 29.74 1007 8 13 N/A
5:00 am 05:00 Cloudy with Light Rain 62 16.7 60 15.6 93 93 WSW 8 13 29.74 1007 7 11 N/A
5:24 am 05:24 Cloudy with Light Rain 61 16.1 60 15.6 97 97 W 8 13 29.77 1008 7 11 N/A
5:53 am 05:53 Cloudy with Mist and Fog 60 15.6 60 15.6 100 100 WSW 7 11 29.76 1008 5 8 0.01 0.25
6:53 am 06:53 Cloudy with Mist and Fog 61 16.1 60 15.6 97 97 W 7 11 29.78 1009 6 10 N/A
7:53 am 07:53 Cloudy 61 16.1 59 15 93 93 W 10 17 29.81 1010 9 14 N/A
8:07 am 08:07 Cloudy with Mist and Fog 60 15.6 58 14.4 93 93 NW 16 26 29.85 1011 6 10 N/A
8:51 am 08:51 Cloudy 52 11 48 9 88 88 NW 18 30 29.94 1014 10 16 N/A
8:53 am 08:53 Cloudy 50 10 48 8.9 93 93 NW 17 28 29.90 1013 10 16 N/A
9:26 am 09:26 Cloudy 49 9.4 47 8.3 93 93 WNW 17 28 29.94 1014 8 13 N/A
9:53 am 09:53 Cloudy with Mist and Fog 48 8.9 46 7.8 93 93 NW 14 22 29.93 1014 5 8 N/A
10:23 am 10:23 Cloudy 48 8.9 45 7.2 89 89 WNW 14 22 30.00 1016 7 11 N/A
10:53 am 10:53 Cloudy with Mist and Fog 47 8.3 44 6.7 90 90 NW 14 22 29.99 1016 5 8 N/A
11:53 am 11:53 Cloudy 48 8.9 44 6.7 86 86 WNW 14 22 30.04 1017 7 11 N/A
12:34 pm 12:34 Cloudy 50 10 44 6.7 80 80 WNW 12 19 30.06 1018 7 11 N/A
12:53 pm 12:53 Cloudy 49 9.4 44 6.7 83 83 NW 13 20 30.03 1017 7 11 N/A
1:53 pm 13:53 Mostly Sunny 54 12.2 43 6.1 67 67 WNW 16 26 30.02 1017 9 14 N/A
2:53 pm 14:53 Mostly Cloudy 56 13.3 41 5 57 57 WNW 20 31 30.03 1017 10 16 N/A
3:53 pm 15:53 Mostly Sunny 56 13.3 35 1.7 46 46 WNW 21 33 30.05 1018 10 16 N/A
4:53 pm 16:53 Mostly Sunny 54 12.2 34 1.1 47 47 W 24 39 30.08 1019 10 16 N/A
5:53 pm 17:53 Sunny 52 11.1 30 -1.1 43 43 WNW 16 26 30.11 1020 10 16 N/A
6:53 pm 18:53 Clear with Light Rain 47 8.3 28 -2.2 48 48 WNW 23 37 30.18 1022 10 16 N/A
7:53 pm 19:53 Clear 44 6.7 24 -4.4 45 45 WNW 15 24 30.21 1023 10 16 N/A
8:53 pm 20:53 Clear 43 6.1 23 -5 45 45 WNW 16 26 30.23 1024 10 16 N/A
9:53 pm 21:53 Clear 41 5 23 -5 49 49 WNW 12 19 30.26 1025 10 16 N/A
10:53 pm 22:53 Clear 39 3.9 22 -5.6 50 50 WNW 13 20 30.29 1026 10 16 N/A
11:53 pm 23:53 Clear 37 2.8 22 -5.6 54 54 WNW 10 17 30.31 1027 10 16 N/A

Powered by AerisWeather